ITY94 EDDH-EPWA

Flight info

Callsign ITY94
Flight time 1h 13m
Altitude 37000
Route RAMAR6G RAMAR DCT PABMI DCT RADEL DCT ALUKA DCT DENKO P851 BIMPA
Aircraft A21N/M-SDE2E3FGHIRWXY/LB1

Departure

Time 2026-04-22 21:44
Airport Hamburg Helmut Schmidt Airport (EDDH)

Arrival

Time 2026-04-22 22:57
Airport Warsaw Chopin Airport (EPWA)
Time Latitude Longitude Altitude Speed Heading
2026-04-22 21:06 53.62869 9.99297 48 ft 0 kts 241°
2026-04-22 21:28 53.62870 9.99298 48 ft 2 kts 241°
2026-04-22 21:28 53.62882 9.99336 45 ft 4 kts 239°
2026-04-22 21:28 53.62898 9.99369 43 ft 4 kts 212°
2026-04-22 21:28 53.62922 9.99383 45 ft 4 kts 170°
2026-04-22 21:29 53.62935 9.99376 43 ft 1 kts 153°
2026-04-22 21:29 53.62936 9.99375 43 ft 0 kts 153°
2026-04-22 21:30 53.62902 9.99253 46 ft 0 kts 242°
2026-04-22 21:36 53.62906 9.99267 45 ft 4 kts 242°
2026-04-22 21:36 53.62919 9.99307 46 ft 4 kts 239°
2026-04-22 21:36 53.62935 9.99341 44 ft 4 kts 212°
2026-04-22 21:37 53.62957 9.99353 43 ft 4 kts 165°
2026-04-22 21:37 53.62966 9.99349 44 ft 0 kts 152°
2026-04-22 21:40 53.62961 9.99353 43 ft 0 kts 152°
2026-04-22 21:40 53.62945 9.99367 46 ft 6 kts 152°
2026-04-22 21:41 53.62888 9.99417 48 ft 13 kts 153°
2026-04-22 21:41 53.62792 9.99501 49 ft 18 kts 153°
2026-04-22 21:41 53.62665 9.99609 49 ft 21 kts 151°
2026-04-22 21:41 53.62646 9.99634 49 ft 1 kts 134°
2026-04-22 21:42 53.62636 9.99650 49 ft 3 kts 132°
2026-04-22 21:42 53.62629 9.99672 47 ft 1 kts 102°
2026-04-22 21:42 53.62632 9.99716 50 ft 8 kts 78°
2026-04-22 21:42 53.62657 9.99865 50 ft 15 kts 60°
2026-04-22 21:43 53.62678 9.99896 51 ft 5 kts 20°
2026-04-22 21:43 53.62713 9.99882 51 ft 0 kts 330°
2026-04-22 21:43 53.62734 9.99862 51 ft 24 kts 332°
2026-04-22 21:44 53.63133 9.99519 49 ft 107 kts 334°
2026-04-22 21:44 53.64021 9.98760 207 ft 165 kts 330°
2026-04-22 21:44 53.65087 9.97846 1018 ft 174 kts 332°
2026-04-22 21:44 53.66143 9.96942 2197 ft 174 kts 333°
2026-04-22 21:45 53.67278 9.95966 3072 ft 191 kts 333°
2026-04-22 21:45 53.68516 9.95018 4011 ft 199 kts 342°
2026-04-22 21:45 53.69899 9.94661 5060 ft 204 kts 356°
2026-04-22 21:45 53.71330 9.94629 6112 ft 207 kts
2026-04-22 21:46 53.72760 9.95070 7092 ft 212 kts 20°
2026-04-22 21:46 53.73986 9.96544 7879 ft 230 kts 46°
2026-04-22 21:46 53.74893 9.98964 8377 ft 262 kts 60°
2026-04-22 21:46 53.75690 10.01815 9392 ft 271 kts 63°
2026-04-22 21:47 53.76484 10.04736 10580 ft 275 kts 63°
2026-04-22 21:47 53.77328 10.07779 11257 ft 299 kts 63°
2026-04-22 21:47 53.78270 10.11113 11675 ft 328 kts 63°
2026-04-22 21:47 53.79292 10.14698 12367 ft 345 kts 63°
2026-04-22 21:48 53.80348 10.18397 13340 ft 352 kts 63°
2026-04-22 21:48 53.81421 10.22154 14360 ft 358 kts 63°
2026-04-22 21:48 53.82505 10.25949 15222 ft 365 kts 63°
2026-04-22 21:48 53.83589 10.29877 16106 ft 372 kts 67°
2026-04-22 21:49 53.84299 10.34128 17005 ft 379 kts 81°
2026-04-22 21:49 53.84295 10.38626 17904 ft 386 kts 96°
2026-04-22 21:49 53.83786 10.43125 18780 ft 392 kts 101°
2026-04-22 21:49 53.83158 10.47639 19542 ft 395 kts 102°
2026-04-22 21:50 53.82733 10.50637 20087 ft 397 kts 102°
2026-04-22 21:50 53.81870 10.56768 21093 ft 402 kts 102°
2026-04-22 21:50 53.81233 10.61333 21900 ft 404 kts 102°
2026-04-22 21:50 53.80568 10.65969 22701 ft 407 kts 104°
2026-04-22 21:51 53.79636 10.70503 23468 ft 410 kts 109°
2026-04-22 21:51 53.78632 10.75033 24150 ft 413 kts 109°
2026-04-22 21:51 53.77615 10.79583 24760 ft 414 kts 109°
2026-04-22 21:52 53.75538 10.88710 25989 ft 417 kts 109°
2026-04-22 21:52 53.74484 10.93280 26587 ft 419 kts 110°
2026-04-22 21:52 53.73418 10.97877 27118 ft 421 kts 110°
2026-04-22 21:52 53.72343 11.02489 27676 ft 422 kts 109°
2026-04-22 21:53 53.71265 11.07108 28188 ft 424 kts 109°
2026-04-22 21:53 53.70177 11.11759 28712 ft 426 kts 109°
2026-04-22 21:53 53.69087 11.16415 29218 ft 427 kts 109°
2026-04-22 21:53 53.68006 11.21022 29871 ft 425 kts 109°
2026-04-22 21:54 53.66908 11.25683 30621 ft 419 kts 109°
2026-04-22 21:54 53.65850 11.30166 31225 ft 415 kts 109°
2026-04-22 21:54 53.64785 11.34678 31783 ft 412 kts 109°
2026-04-22 21:54 53.63726 11.39153 32316 ft 410 kts 109°
2026-04-22 21:55 53.62670 11.43606 32843 ft 407 kts 109°
2026-04-22 21:55 53.61975 11.46535 33173 ft 406 kts 109°
2026-04-22 21:55 53.60758 11.51651 33699 ft 405 kts 109°
2026-04-22 21:55 53.59709 11.56051 34105 ft 404 kts 109°
2026-04-22 21:56 53.58677 11.60374 34516 ft 402 kts 109°
2026-04-22 21:56 53.57630 11.64748 34828 ft 403 kts 109°
2026-04-22 21:56 53.56582 11.69123 35086 ft 404 kts 109°
2026-04-22 21:56 53.55527 11.73515 35364 ft 405 kts 109°
2026-04-22 21:57 53.54467 11.77918 35644 ft 406 kts 109°
2026-04-22 21:57 53.53405 11.82316 35916 ft 406 kts 109°
2026-04-22 21:57 53.52338 11.86728 36180 ft 407 kts 109°
2026-04-22 21:57 53.51271 11.91131 36446 ft 407 kts 109°
2026-04-22 21:58 53.50200 11.95542 36712 ft 408 kts 109°
2026-04-22 21:58 53.49123 11.99966 36976 ft 409 kts 109°
2026-04-22 21:58 53.48045 12.04391 37219 ft 410 kts 109°
2026-04-22 21:59 53.45889 12.13208 37276 ft 410 kts 109°
2026-04-22 21:59 53.43717 12.22052 37276 ft 410 kts 109°
2026-04-22 22:00 53.41539 12.30889 37276 ft 410 kts 109°
2026-04-22 22:00 53.39352 12.39725 37278 ft 410 kts 109°
2026-04-22 22:01 53.37160 12.48542 37273 ft 409 kts 109°
2026-04-22 22:01 53.35058 12.57388 37271 ft 407 kts 104°
2026-04-22 22:02 53.33653 12.66526 37266 ft 405 kts 100°
2026-04-22 22:02 53.32476 12.75734 37264 ft 405 kts 99°
2026-04-22 22:03 53.31340 12.84912 37263 ft 405 kts 99°
2026-04-22 22:03 53.30179 12.94124 37274 ft 405 kts 99°
2026-04-22 22:04 53.28995 13.03327 37261 ft 405 kts 99°
2026-04-22 22:04 53.28400 13.07911 36935 ft 401 kts 99°
2026-04-22 22:04 53.27808 13.12451 36245 ft 399 kts 99°
2026-04-22 22:04 53.27215 13.16993 35500 ft 398 kts 99°
2026-04-22 22:05 53.26631 13.21452 34771 ft 398 kts 99°
2026-04-22 22:05 53.26037 13.25974 33983 ft 398 kts 99°
2026-04-22 22:05 53.25441 13.30502 33006 ft 399 kts 99°
2026-04-22 22:05 53.24842 13.35054 32059 ft 404 kts 99°
2026-04-22 22:06 53.24230 13.39688 31486 ft 412 kts 99°
2026-04-22 22:06 53.23605 13.44401 31282 ft 419 kts 99°
2026-04-22 22:06 53.22979 13.49096 31261 ft 421 kts 99°
2026-04-22 22:07 53.22214 13.54800 31252 ft 419 kts 99°
2026-04-22 22:07 53.20935 13.64277 31249 ft 418 kts 100°
2026-04-22 22:08 53.19652 13.73741 31249 ft 418 kts 100°
2026-04-22 22:08 53.18364 13.83196 31241 ft 418 kts 100°
2026-04-22 22:09 53.17067 13.92648 31250 ft 418 kts 99°
2026-04-22 22:09 53.15760 14.02113 31234 ft 419 kts 99°
2026-04-22 22:10 53.14453 14.11522 31238 ft 419 kts 100°
2026-04-22 22:10 53.13130 14.20982 31233 ft 419 kts 100°
2026-04-22 22:11 53.11800 14.30437 31236 ft 419 kts 100°
2026-04-22 22:11 53.10462 14.39890 31245 ft 419 kts 100°
2026-04-22 22:12 53.09114 14.49349 31228 ft 421 kts 100°
2026-04-22 22:12 53.07755 14.58834 31231 ft 421 kts 100°
2026-04-22 22:13 53.06389 14.68301 31219 ft 421 kts 100°
2026-04-22 22:13 53.05016 14.77760 31216 ft 421 kts 100°
2026-04-22 22:14 53.03634 14.87230 31226 ft 421 kts 100°
2026-04-22 22:14 53.02254 14.96621 31216 ft 421 kts 100°
2026-04-22 22:15 53.00849 15.06128 31219 ft 421 kts 100°
2026-04-22 22:15 52.99453 15.15521 31218 ft 421 kts 100°
2026-04-22 22:16 52.98041 15.24962 31212 ft 421 kts 100°
2026-04-22 22:16 52.96621 15.34398 31216 ft 421 kts 100°
2026-04-22 22:17 52.95193 15.43833 31211 ft 420 kts 100°
2026-04-22 22:17 52.93773 15.53159 31207 ft 419 kts 100°
2026-04-22 22:18 52.92337 15.62541 31205 ft 419 kts 100°
2026-04-22 22:18 52.90897 15.71898 31206 ft 419 kts 100°
2026-04-22 22:19 52.89447 15.81256 31201 ft 419 kts 101°
2026-04-22 22:19 52.87988 15.90618 31202 ft 420 kts 100°
2026-04-22 22:20 52.86522 15.99978 31195 ft 420 kts 100°
2026-04-22 22:20 52.85047 16.09341 31194 ft 421 kts 101°
2026-04-22 22:21 52.83571 16.18660 31192 ft 421 kts 101°
2026-04-22 22:21 52.82080 16.28014 31192 ft 421 kts 101°
2026-04-22 22:22 52.80581 16.37363 31194 ft 421 kts 100°
2026-04-22 22:22 52.79328 16.45146 31188 ft 421 kts 100°
2026-04-22 22:23 52.77815 16.54496 31186 ft 421 kts 101°
2026-04-22 22:23 52.76292 16.63851 31187 ft 421 kts 101°
2026-04-22 22:24 52.74761 16.73204 31174 ft 422 kts 101°
2026-04-22 22:24 52.73224 16.82542 31188 ft 422 kts 101°
2026-04-22 22:25 52.71685 16.91840 31164 ft 422 kts 101°
2026-04-22 22:25 52.70132 17.01199 31163 ft 422 kts 99°
2026-04-22 22:26 52.68983 17.10645 31162 ft 420 kts 96°
2026-04-22 22:26 52.67963 17.20128 31165 ft 420 kts 95°
2026-04-22 22:27 52.66966 17.29606 31170 ft 420 kts 95°
2026-04-22 22:27 52.65964 17.39027 31154 ft 421 kts 95°
2026-04-22 22:28 52.64939 17.48520 31150 ft 421 kts 96°
2026-04-22 22:28 52.63903 17.58019 31144 ft 421 kts 96°
2026-04-22 22:29 52.62859 17.67504 31141 ft 421 kts 96°
2026-04-22 22:29 52.61808 17.76997 31133 ft 421 kts 96°
2026-04-22 22:30 52.60748 17.86483 31133 ft 421 kts 96°
2026-04-22 22:30 52.59689 17.95904 31127 ft 421 kts 96°
2026-04-22 22:31 52.58611 18.05379 31129 ft 421 kts 96°
2026-04-22 22:31 52.57514 18.14867 31121 ft 422 kts 96°
2026-04-22 22:32 52.56409 18.24344 31123 ft 422 kts 96°
2026-04-22 22:32 52.55297 18.33813 31113 ft 423 kts 96°
2026-04-22 22:33 52.54183 18.43247 31114 ft 423 kts 96°
2026-04-22 22:33 52.53054 18.52739 31110 ft 423 kts 96°
2026-04-22 22:34 52.51916 18.62229 31103 ft 424 kts 96°
2026-04-22 22:34 52.50713 18.72198 31105 ft 426 kts 96°
2026-04-22 22:35 52.49551 18.81751 31103 ft 427 kts 96°
2026-04-22 22:35 52.48390 18.91233 31097 ft 427 kts 96°
2026-04-22 22:36 52.47210 19.00794 31097 ft 427 kts 96°
2026-04-22 22:36 52.46023 19.10344 31089 ft 427 kts 96°
2026-04-22 22:37 52.44829 19.19890 31089 ft 427 kts 96°
2026-04-22 22:37 52.43625 19.29438 31087 ft 428 kts 96°
2026-04-22 22:38 52.42412 19.38995 31091 ft 426 kts 96°
2026-04-22 22:38 52.41808 19.43697 30557 ft 418 kts 96°
2026-04-22 22:38 52.41208 19.48383 29331 ft 424 kts 96°
2026-04-22 22:38 52.40601 19.53132 28309 ft 425 kts 96°
2026-04-22 22:39 52.39992 19.57862 27417 ft 423 kts 96°
2026-04-22 22:39 52.39385 19.62560 26511 ft 422 kts 96°
2026-04-22 22:39 52.38780 19.67234 25550 ft 426 kts 97°
2026-04-22 22:39 52.38161 19.72005 24554 ft 430 kts 97°
2026-04-22 22:40 52.37364 19.76737 23894 ft 433 kts 105°
2026-04-22 22:40 52.36149 19.81250 23131 ft 434 kts 111°
2026-04-22 22:40 52.34799 19.85659 22359 ft 432 kts 112°
2026-04-22 22:40 52.33422 19.90014 21634 ft 430 kts 112°
2026-04-22 22:41 52.32044 19.94332 20879 ft 427 kts 112°
2026-04-22 22:41 52.30670 19.98620 20130 ft 425 kts 112°
2026-04-22 22:41 52.29299 20.02889 19370 ft 423 kts 112°
2026-04-22 22:41 52.27935 20.07126 18609 ft 420 kts 113°
2026-04-22 22:42 52.26576 20.11340 17802 ft 418 kts 113°
2026-04-22 22:42 52.25223 20.15527 17025 ft 413 kts 112°
2026-04-22 22:42 52.23890 20.19645 16260 ft 408 kts 113°
2026-04-22 22:42 52.22587 20.23665 15528 ft 404 kts 113°
2026-04-22 22:43 52.21280 20.27691 14783 ft 401 kts 113°
2026-04-22 22:43 52.19977 20.31701 14063 ft 398 kts 114°
2026-04-22 22:43 52.18682 20.35678 13271 ft 395 kts 114°
2026-04-22 22:43 52.17400 20.39605 12542 ft 390 kts 114°
2026-04-22 22:44 52.16131 20.43484 11831 ft 385 kts 114°
2026-04-22 22:44 52.14879 20.47310 11137 ft 380 kts 114°
2026-04-22 22:44 52.13639 20.51091 10587 ft 371 kts 114°
2026-04-22 22:44 52.12471 20.54633 10501 ft 348 kts 114°
2026-04-22 22:45 52.11362 20.57992 10448 ft 326 kts 114°
2026-04-22 22:45 52.10318 20.61158 10339 ft 308 kts 114°
2026-04-22 22:45 52.09327 20.64165 10179 ft 296 kts 114°
2026-04-22 22:45 52.08368 20.67076 10053 ft 286 kts 114°
2026-04-22 22:46 52.07433 20.69913 9728 ft 284 kts 114°
2026-04-22 22:46 52.06502 20.72740 9291 ft 284 kts 114°
2026-04-22 22:46 52.05569 20.75567 8933 ft 283 kts 114°
2026-04-22 22:46 52.04638 20.78378 8565 ft 282 kts 114°
2026-04-22 22:47 52.03722 20.81141 8201 ft 281 kts 114°
2026-04-22 22:47 52.02796 20.83930 7845 ft 280 kts 114°
2026-04-22 22:47 52.01873 20.86706 7478 ft 279 kts 114°
2026-04-22 22:47 52.00947 20.89487 7114 ft 279 kts 115°
2026-04-22 22:48 52.00027 20.92246 6754 ft 277 kts 115°
2026-04-22 22:48 51.99110 20.94994 6400 ft 277 kts 115°
2026-04-22 22:48 51.98193 20.97737 6019 ft 276 kts 114°
2026-04-22 22:48 51.97279 21.00470 5668 ft 276 kts 115°
2026-04-22 22:49 51.96363 21.03207 5304 ft 276 kts 115°
2026-04-22 22:49 51.95447 21.05937 4949 ft 275 kts 115°
2026-04-22 22:49 51.94534 21.08658 4566 ft 274 kts 115°
2026-04-22 22:49 51.93616 21.11392 4189 ft 280 kts 115°
2026-04-22 22:50 51.92716 21.14207 3669 ft 287 kts 106°
2026-04-22 22:50 51.92527 21.17269 3383 ft 264 kts 70°
2026-04-22 22:50 51.93342 21.19656 3199 ft 229 kts 33°
2026-04-22 22:50 51.94692 21.20522 3026 ft 199 kts 354°
2026-04-22 22:51 51.95938 21.19959 2991 ft 179 kts 330°
2026-04-22 22:51 51.96921 21.18788 2988 ft 175 kts 321°
2026-04-22 22:51 51.97831 21.17464 2993 ft 176 kts 320°
2026-04-22 22:51 51.98718 21.16095 2992 ft 177 kts 319°
2026-04-22 22:52 51.99592 21.14687 2987 ft 177 kts 318°
2026-04-22 22:52 52.00455 21.13262 2990 ft 177 kts 317°
2026-04-22 22:52 52.01311 21.11827 2988 ft 177 kts 317°
2026-04-22 22:52 52.02165 21.10386 2975 ft 177 kts 317°
2026-04-22 22:53 52.03008 21.08971 2792 ft 168 kts 320°
2026-04-22 22:53 52.03898 21.07864 2635 ft 157 kts 329°
2026-04-22 22:53 52.04846 21.06975 2523 ft 158 kts 332°
2026-04-22 22:53 52.05811 21.06129 2406 ft 158 kts 332°
2026-04-22 22:54 52.06776 21.05291 2204 ft 157 kts 333°
2026-04-22 22:54 52.07738 21.04446 2009 ft 152 kts 332°
2026-04-22 22:54 52.08602 21.03687 1839 ft 130 kts 332°
2026-04-22 22:54 52.09362 21.03021 1533 ft 120 kts 332°
2026-04-22 22:55 52.10088 21.02388 1455 ft 120 kts 333°
2026-04-22 22:55 52.10829 21.01741 1282 ft 119 kts 332°
2026-04-22 22:55 52.12235 21.00513 888 ft 111 kts 330°
2026-04-22 22:56 52.12920 20.99913 787 ft 112 kts 330°
2026-04-22 22:56 52.13603 20.99316 637 ft 111 kts 329°
2026-04-22 22:56 52.14285 20.98720 500 ft 112 kts 330°
2026-04-22 22:56 52.14971 20.98119 410 ft 111 kts 329°
2026-04-22 22:57 52.15645 20.97530 372 ft 103 kts 329°
2026-04-22 22:57 52.16199 20.97042 357 ft 71 kts 331°
2026-04-22 22:57 52.16561 20.96720 363 ft 45 kts 333°
2026-04-22 22:57 52.16814 20.96537 362 ft 36 kts 347°
2026-04-22 22:58 52.17041 20.96517 358 ft 23 kts 20°
2026-04-22 22:58 52.17131 20.96672 363 ft 18 kts 63°
2026-04-22 22:58 52.17179 20.96862 363 ft 15 kts 78°
2026-04-22 22:58 52.17196 20.96925 362 ft 5 kts 62°
2026-04-22 22:59 52.17206 20.96955 362 ft 0 kts 62°